[[{"header":{"parameterUnit":"m.s-1","parameterCategory":1,"la1":30.2991,"la2":30.254,"lo1":-89.0895,"lo2":-89.0444,"dy":0.0017,"dx":0.0017,"nx":28,"ny":28,"refTime":"2024-12-17T09:00:00:Z","depth":0,"parameterNumber":2,"parameterNumberName":"U-component_of_WINDS"},"data":[0,0,0,0,0,0,0,0,0,0,0,0,0,0,0,0,0,0,0,0,0,0,0,0,0,0,0,0,0,0,0,0,0,0,0,0,0,0,0,0,0,0,0,0,0,0,0,0,0,0,0,0,0,0,0,0,0,0,0.813,0.8131,0,0.8195,0.8196,0.8197,0.8213,0.8212,0.8212,0.8212,0.8277,0.8279,0.8281,0,0,0,0,0,0,0,0,0,0,0,0,0,0.802,0.8022,0.813,0.8131,0.8132,0.8195,0.8196,0.8197,0.8213,0.8212,0.8212,0.8211,0.8276,0.8279,0.8281,0,0,0,0,0,0,0,0,0,0,0,0,0,0.8075,0.8023,0.813,0.8147,0.815,0.8195,0.8196,0.8197,0.8213,0.8212,0.8212,0.8211,0.8276,0.8279,0.8282,0.8314,0,0,0.8292,0.8293,0,0,0,0,0,0,0,0,0.8072,0.8079,0.8144,0.8146,0.8149,0.8195,0.8181,0.8236,0.8213,0.8189,0.8212,0.8211,0.825,0.8256,0.8269,0.8317,0.832,0.8292,0.8294,0.8295,0.8296,0,0,0,0,0,0,0,0.8068,0.8076,0.8156,0.8145,0.8148,0.8152,0.8159,0.8192,0.8222,0.8191,0.8192,0.82,0.8251,0.8266,0.8271,0.8321,0.8292,0.8295,0.8297,0.8298,0.84,0.84,0,0,0,0,0,0,0.8061,0.8073,0.8154,0.8158,0.8108,0.8155,0.8162,0.8181,0.8222,0.8228,0.82,0.82,0.8261,0.8267,0.8273,0.8314,0.8295,0.8298,0.83,0.8399,0.84,0.8401,0,0,0,0,0,0,0.8059,0.8068,0.8151,0.8116,0.8127,0.8157,0.8178,0.8183,0.8197,0.8229,0.8234,0.8209,0.8261,0.8269,0.8304,0.8317,0.83,0.8302,0.8398,0.8399,0.84,0.8396,0,0,0,0,0,0,0.8055,0.8067,0.808,0.8116,0.8128,0.8181,0.8179,0.8184,0.8203,0.8203,0.8239,0.8244,0.8261,0.8299,0.8307,0.8321,0.8305,0.8397,0.8398,0.84,0.8395,0.8397,0.8398,0,0,0,0,0,0.8051,0.8075,0.808,0.809,0.8145,0.8182,0.8189,0.8207,0.8204,0.8216,0.8237,0.8243,0.8314,0.8303,0.8312,0.8326,0.8396,0.8398,0.84,0.8394,0.8397,0.8398,0,0,0,0,0,0,0.8039,0.808,0.8086,0.8122,0.8149,0.8184,0.8201,0.8209,0.8236,0.8236,0.8257,0.8265,0.8299,0.8316,0.8303,0.836,0.8355,0.8359,0.8348,0.835,0.8352,0.8347,0.8308,0,0,0,0,0,0.804,0.8067,0.8102,0.8131,0.8144,0.817,0.8187,0.8199,0.8227,0.8238,0.8261,0.8287,0.8316,0.8334,0.8362,0.8398,0.8406,0.8413,0.8414,0.8415,0.8418,0.844,0.8443,0.8406,0.8406,0.8406,0,0,0.8044,0.807,0.8085,0.8129,0.815,0.8178,0.8179,0.8208,0.8228,0.8242,0.8277,0.8295,0.8326,0.8363,0.838,0.8378,0.8431,0.8418,0.8418,0.8421,0.8442,0.8446,0.8449,0.8408,0.8407,0.8407,0,0,0.8064,0.8086,0.8113,0.8135,0.8168,0.8186,0.8192,0.8227,0.824,0.8276,0.8287,0.8312,0.836,0.8382,0.8399,0.843,0.8436,0.8438,0.8446,0.8467,0.847,0.8473,0.8484,0.8488,0.8441,0.8441,0.8441,0,0.8064,0.8106,0.8126,0.8154,0.8174,0.8188,0.8216,0.8236,0.8276,0.8289,0.8287,0.8348,0.837,0.8412,0.842,0.8433,0.8442,0.8434,0.8468,0.8471,0.8474,0.8485,0.8489,0.8441,0.8441,0.8441,0.8441,0,0.8104,0.8133,0.8151,0.819,0.8212,0.824,0.8264,0.8283,0.8294,0.8312,0.8349,0.8376,0.841,0.8421,0.8431,0.8465,0.8463,0.8464,0.8459,0.8477,0.8488,0.8492,0.8441,0.8441,0.8441,0.8441,0,0,0.8117,0.8169,0.8175,0.8194,0.8232,0.8255,0.8283,0.8317,0.8334,0.8361,0.8386,0.8428,0.8429,0.8449,0.8462,0.848,0.8504,0.848,0.8481,0.8484,0.8544,0.8543,0.8548,0.8509,0.851,0.851,0.8542,0,0.8143,0.8195,0.8215,0.8258,0.8286,0.83,0.8326,0.8352,0.837,0.8396,0.8416,0.8445,0.8445,0.8457,0.8476,0.8497,0.8516,0.8495,0.8533,0.8534,0.8525,0.8553,0.8552,0.858,0.8546,0.8547,0.8547,0,0.8179,0.8208,0.8254,0.829,0.8303,0.8325,0.8358,0.8383,0.8413,0.8425,0.8448,0.846,0.8492,0.8485,0.8529,0.8514,0.8531,0.8544,0.8545,0.855,0.8542,0.8559,0.859,0.8594,0.8554,0.8553,0.8553,0,0.8185,0.8235,0.827,0.8285,0.8328,0.8344,0.8362,0.8392,0.8412,0.8441,0.8454,0.8486,0.8504,0.8528,0.8549,0.8542,0.8592,0.8586,0.8603,0.8602,0.8612,0.8612,0.8647,0.8622,0.8622,0.8622,0.8622,0,0.8211,0.8239,0.8273,0.8294,0.8326,0.8349,0.838,0.8399,0.8426,0.8452,0.8466,0.849,0.8515,0.8543,0.8559,0.8593,0.8601,0.8612,0.8616,0.8611,0.861,0.8622,0.8621,0.8623,0.8623,0.8623,0.8623,0,0.8223,0.8247,0.8286,0.8324,0.8334,0.8356,0.8388,0.841,0.8429,0.8461,0.847,0.8499,0.8532,0.8556,0.8597,0.8609,0.8646,0.865,0.8636,0.8638,0.8653,0.8652,0.8698,0.8706,0.8676,0.8676,0.8676,0,0.8238,0.826,0.8301,0.8319,0.8338,0.8367,0.8388,0.8411,0.8432,0.8469,0.8486,0.852,0.8549,0.86,0.8626,0.8658,0.8663,0.8677,0.8668,0.8663,0.8664,0.8663,0.8666,0.8679,0.8679,0.8679,0.8679,0,0.8263,0.8274,0.8303,0.8337,0.8362,0.8389,0.8417,0.8431,0.8459,0.8482,0.8516,0.8538,0.8582,0.8616,0.8651,0.867,0.868,0.8682,0.8688,0.8683,0.8674,0.868,0.864,0.8681,0.868,0.868,0.868,0.868,0.8278,0.8298,0.8331,0.8363,0.8386,0.8412,0.8435,0.8457,0.8486,0.8524,0.8536,0.8572,0.8603,0.8651,0.8671,0.87,0.8699,0.8707,0.8709,0.8711,0.8711,0.8669,0.8706,0.8706,0.8706,0.8706,0.8706,0,0.8304,0.8326,0.8355,0.8394,0.842,0.8427,0.8459,0.848,0.8511,0.854,0.8568,0.8608,0.8641,0.867,0.8704,0.8721,0.8727,0.873,0.8729,0.8734,0.8709,0.8701,0.8725,0.8725,0.8725,0.8725,0.8725,0.8725,0.832,0.8356,0.8372,0.842,0.8441,0.8477,0.8494,0.8519,0.8542,0.8586,0.8614,0.8633,0.8661,0.8699,0.873,0.8737,0.875,0.8752,0.876,0.8737,0.8735,0.8733,0.8726,0.8754,0.8754,0.8783,0.8783,0.8783]},{"header":{"parameterUnit":"m.s-1","parameterCategory":1,"la1":30.2991,"la2":30.254,"lo1":-89.0895,"lo2":-89.0444,"dy":0.0017,"dx":0.0017,"nx":28,"ny":28,"refTime":"2024-12-17T09:00:00:Z","depth":0,"parameterNumber":3,"parameterNumberName":"V-component_of_WINDS"},"data":[0,0,0,0,0,0,0,0,0,0,0,0,0,0,0,0,0,0,0,0,0,0,0,0,0,0,0,0,0,0,0,0,0,0,0,0,0,0,0,0,0,0,0,0,0,0,0,0,0,0,0,0,0,0,0,0,0,0,-4.837,-4.8371,0,-4.8395,-4.8396,-4.8396,-4.8328,-4.8326,-4.8324,-4.8322,-4.8346,-4.8349,-4.8351,0,0,0,0,0,0,0,0,0,0,0,0,0,-4.8264,-4.8266,-4.837,-4.8371,-4.8371,-4.8395,-4.8396,-4.8396,-4.8329,-4.8326,-4.8324,-4.8321,-4.8345,-4.8349,-4.8352,0,0,0,0,0,0,0,0,0,0,0,0,0,-4.8302,-4.8267,-4.837,-4.834,-4.8338,-4.8395,-4.8396,-4.8396,-4.8329,-4.8326,-4.8323,-4.832,-4.8344,-4.8348,-4.8352,-4.8439,0,0,-4.8364,-4.8366,0,0,0,0,0,0,0,0,-4.83,-4.8306,-4.8344,-4.8343,-4.834,-4.8356,-4.8367,-4.841,-4.833,-4.8333,-4.8322,-4.8319,-4.8352,-4.8355,-4.8366,-4.844,-4.8441,-4.8364,-4.8367,-4.8368,-4.8369,0,0,0,0,0,0,0,-4.8297,-4.8304,-4.838,-4.8345,-4.8342,-4.8326,-4.8328,-4.8375,-4.8359,-4.8332,-4.8327,-4.8331,-4.835,-4.8363,-4.8367,-4.8441,-4.8364,-4.8368,-4.837,-4.8372,-4.8591,-4.8594,0,0,0,0,0,0,-4.8298,-4.8302,-4.8379,-4.8381,-4.8312,-4.833,-4.8332,-4.8354,-4.8359,-4.8357,-4.8334,-4.8328,-4.8358,-4.8362,-4.8367,-4.8472,-4.8368,-4.8372,-4.8374,-4.8587,-4.8591,-4.8595,0,0,0,0,0,0,-4.8296,-4.8306,-4.8378,-4.834,-4.8348,-4.8335,-4.836,-4.8356,-4.8369,-4.836,-4.8357,-4.835,-4.8355,-4.8362,-4.8422,-4.8471,-4.8374,-4.8377,-4.8583,-4.8589,-4.8593,-4.868,0,0,0,0,0,0,-4.8294,-4.8306,-4.8338,-4.8342,-4.8351,-4.8434,-4.8363,-4.8359,-4.8376,-4.8368,-4.8374,-4.8372,-4.8353,-4.8417,-4.8426,-4.8475,-4.838,-4.8579,-4.8586,-4.8592,-4.8673,-4.8687,-4.87,0,0,0,0,0,-4.829,-4.8361,-4.834,-4.835,-4.8392,-4.8436,-4.8442,-4.8419,-4.838,-4.8413,-4.8408,-4.8372,-4.8464,-4.8424,-4.8434,-4.8484,-4.8576,-4.8584,-4.8591,-4.8667,-4.8685,-4.87,0,0,0,0,0,0,-4.8362,-4.836,-4.8338,-4.8412,-4.8425,-4.8425,-4.8466,-4.8438,-4.8462,-4.8454,-4.8424,-4.8426,-4.8493,-4.8494,-4.8449,-4.857,-4.8513,-4.8524,-4.8567,-4.8584,-4.8598,-4.8597,-4.8383,0,0,0,0,0,-4.8387,-4.8424,-4.842,-4.8486,-4.8494,-4.8479,-4.8498,-4.8479,-4.8491,-4.8496,-4.8495,-4.8508,-4.854,-4.8562,-4.8591,-4.8672,-4.8674,-4.8712,-4.8726,-4.8737,-4.8747,-4.8793,-4.881,-4.8621,-4.8621,-4.8621,0,0,-4.8438,-4.8441,-4.8466,-4.85,-4.8508,-4.8548,-4.8484,-4.8527,-4.8557,-4.8503,-4.8561,-4.8561,-4.8573,-4.8646,-4.8678,-4.8649,-4.8799,-4.8747,-4.8756,-4.876,-4.8802,-4.882,-4.8836,-4.8626,-4.8625,-4.8625,0,0,-4.8551,-4.8557,-4.8614,-4.8624,-4.8637,-4.8628,-4.8641,-4.8646,-4.8645,-4.8703,-4.8664,-4.8698,-4.8753,-4.8765,-4.8778,-4.8899,-4.8867,-4.8909,-4.8981,-4.9026,-4.9041,-4.9054,-4.91,-4.9116,-4.8918,-4.8918,-4.8918,0,-4.8613,-4.8671,-4.8646,-4.8694,-4.8711,-4.8665,-4.8723,-4.8733,-4.8755,-4.8768,-4.8736,-4.8806,-4.8811,-4.8887,-4.8917,-4.8928,-4.8944,-4.8908,-4.9041,-4.9054,-4.9066,-4.9109,-4.9126,-4.8923,-4.8923,-4.8922,-4.8922,0,-4.8747,-4.8788,-4.8832,-4.8857,-4.8879,-4.8931,-4.8915,-4.894,-4.892,-4.8914,-4.8975,-4.8979,-4.901,-4.9026,-4.9006,-4.91,-4.9082,-4.9046,-4.8988,-4.9089,-4.9129,-4.9145,-4.893,-4.8929,-4.8927,-4.8926,0,0,-4.8906,-4.8918,-4.8935,-4.8947,-4.896,-4.8991,-4.9042,-4.9073,-4.9096,-4.9113,-4.9156,-4.9205,-4.9173,-4.9187,-4.9169,-4.9208,-4.9307,-4.9167,-4.9167,-4.9195,-4.9413,-4.9442,-4.9462,-4.9286,-4.9289,-4.9291,-4.9413,0,-4.902,-4.9109,-4.9089,-4.9177,-4.9216,-4.9174,-4.9218,-4.9231,-4.9228,-4.926,-4.9255,-4.9292,-4.9244,-4.9254,-4.9291,-4.9287,-4.9351,-4.9278,-4.9327,-4.9329,-4.9327,-4.9482,-4.9512,-4.9627,-4.9428,-4.9431,-4.9433,0,-4.9165,-4.919,-4.9282,-4.9292,-4.9307,-4.9348,-4.9376,-4.9407,-4.9422,-4.9416,-4.9435,-4.9409,-4.946,-4.9401,-4.9473,-4.9424,-4.9442,-4.9444,-4.9448,-4.9453,-4.9388,-4.9493,-4.9663,-4.9681,-4.9457,-4.9455,-4.9453,0,-4.9275,-4.9331,-4.9394,-4.9405,-4.9417,-4.9447,-4.9453,-4.9465,-4.9486,-4.951,-4.9524,-4.9553,-4.957,-4.9593,-4.9577,-4.9535,-4.9652,-4.9591,-4.965,-4.965,-4.9677,-4.9676,-4.9854,-4.9686,-4.9686,-4.9685,-4.9685,0,-4.9405,-4.9464,-4.9445,-4.9484,-4.9549,-4.9525,-4.959,-4.9591,-4.9602,-4.9641,-4.9606,-4.9643,-4.9618,-4.9653,-4.964,-4.9703,-4.971,-4.9708,-4.9704,-4.9712,-4.9713,-4.9725,-4.9718,-4.969,-4.9689,-4.9688,-4.9687,0,-4.9539,-4.9528,-4.9595,-4.9602,-4.9605,-4.9653,-4.9658,-4.9695,-4.9689,-4.9739,-4.975,-4.974,-4.978,-4.9766,-4.9808,-4.9799,-4.988,-4.9865,-4.9876,-4.9873,-4.9933,-4.9929,-5.0127,-5.0153,-4.9967,-4.9968,-4.997,0,-4.9624,-4.9669,-4.9681,-4.9706,-4.9715,-4.9754,-4.9776,-4.9755,-4.9779,-4.9801,-4.9835,-4.9873,-4.9902,-4.9968,-4.9965,-4.9997,-4.9984,-5.0051,-4.9988,-4.9996,-4.9988,-4.9986,-4.9992,-5.0064,-5.0066,-5.0068,-5.007,0,-4.9777,-4.977,-4.9803,-4.9836,-4.9864,-4.9888,-4.9908,-4.993,-4.9911,-4.994,-4.9982,-5.0004,-5.0049,-5.0087,-5.0117,-5.0123,-5.0094,-5.0089,-5.0105,-5.0115,-5.0121,-5.0121,-4.9913,-5.0085,-5.0084,-5.0082,-5.0082,-5.0081,-4.9891,-4.993,-4.9945,-4.9984,-4.9998,-5.0019,-5.0055,-5.0055,-5.009,-5.0125,-5.0111,-5.0159,-5.0174,-5.0212,-5.0223,-5.026,-5.0234,-5.0256,-5.0262,-5.0269,-5.0278,-5.0113,-5.0265,-5.0265,-5.0264,-5.0264,-5.0264,0,-5.0044,-5.0053,-5.0089,-5.0121,-5.0152,-5.0122,-5.0145,-5.0173,-5.0217,-5.0234,-5.0264,-5.0313,-5.035,-5.0351,-5.0386,-5.0416,-5.0404,-5.0427,-5.0425,-5.0428,-5.0298,-5.0282,-5.0436,-5.0436,-5.0436,-5.0436,-5.0436,-5.0436,-5.0127,-5.0193,-5.0188,-5.0261,-5.0268,-5.0317,-5.0333,-5.0353,-5.0367,-5.0424,-5.0455,-5.0456,-5.0467,-5.0503,-5.0537,-5.0536,-5.0551,-5.0579,-5.0574,-5.0453,-5.0436,-5.042,-5.0405,-5.0582,-5.0582,-5.07,-5.0702,-5.0702]}]]